• In Russia
  • List of Countries
  • For 7 days
  • Water Temperature
  • Weather Map
  • Weather Widgets
  • user-avatar
    Login

    Hourly Weather Lubango

    Today, 20 November, Wednesday

    Time Temperature Precipitation Wind Pressure Humidity
    00:00 +16°C° 0 mm 1 mps 607 mmHg 50%
    01:00 +16°C° 0 mm 1 mps 607 mmHg 50%
    02:00 +16°C° 0 mm 1 mps 606 mmHg 48%
    03:00 +16°C° 0 mm 1 mps 606 mmHg 46%
    04:00 +15°C° 0 mm 1 mps 606 mmHg 43%
    05:00 +16°C° 0 mm 1 mps 606 mmHg 41%
    06:00 +18°C° 0 mm 1 mps 607 mmHg 38%
    07:00 +19°C° 0 mm 1 mps 608 mmHg 35%
    08:00 +21°C° 0 mm 1 mps 609 mmHg 32%
    09:00 +23°C° 0 mm 1 mps 610 mmHg 28%
    10:00 +25°C° 0 mm 2 mps 611 mmHg 24%
    11:00 +26°C° 0 mm 2 mps 610 mmHg 24%
    12:00 +27°C° 0 mm 2 mps 610 mmHg 24%
    13:00 +28°C° 0 mm 2 mps 610 mmHg 24%
    14:00 +27°C° 0 mm 3 mps 609 mmHg 25%
    15:00 +26°C° 0 mm 3 mps 608 mmHg 25%
    16:00 +25°C° 0 mm 3 mps 608 mmHg 26%
    17:00 +22°C° 0 mm 3 mps 607 mmHg 29%
    18:00 +20°C° 0 mm 3 mps 607 mmHg 31%
    19:00 +18°C° 0 mm 2 mps 606 mmHg 34%
    20:00 +18°C° 0 mm 2 mps 607 mmHg 36%
    21:00 +17°C° 0 mm 2 mps 607 mmHg 38%
    22:00 +18°C° 0 mm 1 mps 607 mmHg 40%
    23:00 +18°C° 0 mm 1 mps 607 mmHg 38%

    Tomorrow, 21 November, Thursday

    Time Temperature Precipitation Wind Pressure Humidity
    00:00 +18°C° 0 mm 1 mps 607 mmHg 36%
    01:00 +18°C° 0 mm 1 mps 607 mmHg 34%
    02:00 +18°C° 0 mm 1 mps 607 mmHg 34%
    03:00 +18°C° 0 mm 1 mps 606 mmHg 33%
    04:00 +16°C° 0 mm 1 mps 606 mmHg 32%
    05:00 +18°C° 0 mm 1 mps 607 mmHg 34%
    06:00 +18°C° 0 mm 1 mps 607 mmHg 35%
    07:00 +18°C° 0 mm 1 mps 608 mmHg 36%
    08:00 +20°C° 0 mm 1 mps 609 mmHg 33%
    09:00 +22°C° 0 mm 1 mps 610 mmHg 30%
    10:00 +24°C° 0 mm 1 mps 610 mmHg 27%
    11:00 +25°C° 0 mm 2 mps 610 mmHg 26%
    12:00 +26°C° 0 mm 2 mps 610 mmHg 26%
    13:00 +27°C° 0 mm 2 mps 610 mmHg 25%
    14:00 +26°C° 0 mm 3 mps 610 mmHg 27%
    15:00 +26°C° 0 mm 3 mps 609 mmHg 28%
    16:00 +25°C° 0 mm 4 mps 608 mmHg 29%
    17:00 +22°C° 0 mm 3 mps 608 mmHg 35%
    18:00 +20°C° 0 mm 3 mps 608 mmHg 40%
    19:00 +18°C° 0 mm 2 mps 608 mmHg 45%
    20:00 +17°C° 0 mm 2 mps 608 mmHg 46%
    21:00 +18°C° 0 mm 1 mps 608 mmHg 47%
    22:00 +16°C° 0 mm 1 mps 608 mmHg 48%
    23:00 +16°C° 0 mm 1 mps 608 mmHg 47%

    Day after tomorrow, 22 November, Friday

    Time Temperature Precipitation Wind Pressure Humidity
    00:00 +16°C° 0 mm 2 mps 608 mmHg 46%
    01:00 +15°C° 0 mm 2 mps 607 mmHg 45%
    02:00 +15°C° 0 mm 1 mps 607 mmHg 44%
    03:00 +15°C° 0 mm 1 mps 607 mmHg 43%
    04:00 +15°C° 0 mm 1 mps 607 mmHg 42%
    05:00 +15°C° 0 mm 1 mps 607 mmHg 43%
    06:00 +15°C° 0 mm 0 mps 608 mmHg 43%
    07:00 +15°C° 0 mm 0 mps 609 mmHg 43%
    08:00 +18°C° 0 mm 0 mps 610 mmHg 38%
    09:00 +22°C° 0 mm 1 mps 610 mmHg 33%
    10:00 +24°C° 0 mm 1 mps 611 mmHg 28%
    11:00 +25°C° 0 mm 1 mps 611 mmHg 27%
    12:00 +26°C° 0 mm 2 mps 611 mmHg 26%
    13:00 +27°C° 0 mm 2 mps 610 mmHg 26%
    14:00 +26°C° 0 mm 2 mps 610 mmHg 27%
    15:00 +26°C° 0 mm 3 mps 609 mmHg 29%
    16:00 +25°C° 0 mm 3 mps 609 mmHg 31%
    17:00 +22°C° 0 mm 3 mps 608 mmHg 36%
    18:00 +20°C° 0 mm 2 mps 608 mmHg 41%
    19:00 +18°C° 0 mm 2 mps 607 mmHg 46%
    20:00 +17°C° 0 mm 2 mps 608 mmHg 47%
    21:00 +18°C° 0 mm 1 mps 608 mmHg 48%
    22:00 +18°C° 0 mm 1 mps 609 mmHg 49%
    23:00 +16°C° 0 mm 1 mps 608 mmHg 51%

    23 November, Saturday

    Time Temperature Precipitation Wind Pressure Humidity
    00:00 +16°C° 0 mm 1 mps 608 mmHg 53%
    01:00 +15°C° 0 mm 1 mps 607 mmHg 55%
    02:00 +15°C° 0 mm 1 mps 607 mmHg 54%
    03:00 +15°C° 0 mm 1 mps 607 mmHg 53%
    04:00 +15°C° 0 mm 1 mps 607 mmHg 52%
    05:00 +16°C° 0 mm 1 mps 607 mmHg 49%
    06:00 +18°C° 0 mm 1 mps 608 mmHg 45%
    07:00 +17°C° 0 mm 0 mps 609 mmHg 42%
    08:00 +21°C° 0 mm 1 mps 610 mmHg 36%
    09:00 +24°C° 0 mm 1 mps 611 mmHg 31%
    10:00 +26°C° 0 mm 2 mps 612 mmHg 26%
    11:00 +27°C° 0 mm 2 mps 611 mmHg 24%
    12:00 +28°C° 0 mm 2 mps 611 mmHg 23%
    13:00 +29°C° 0 mm 2 mps 611 mmHg 22%
    14:00 +28°C° 0 mm 3 mps 610 mmHg 23%
    15:00 +28°C° 0 mm 3 mps 609 mmHg 24%
    16:00 +27°C° 0 mm 3 mps 609 mmHg 25%
    17:00 +25°C° 0 mm 3 mps 608 mmHg 32%
    18:00 +21°C° 0 mm 2 mps 608 mmHg 40%
    19:00 +19°C° 0 mm 2 mps 607 mmHg 47%
    20:00 +19°C° 0 mm 1 mps 607 mmHg 48%
    21:00 +19°C° 0 mm 1 mps 608 mmHg 48%
    22:00 +18°C° 0 mm 1 mps 608 mmHg 48%
    23:00 +18°C° 0 mm 1 mps 608 mmHg 49%

    24 November, Sunday

    Time Temperature Precipitation Wind Pressure Humidity
    00:00 +16°C° 0 mm 1 mps 607 mmHg 50%
    01:00 +16°C° 0 mm 1 mps 607 mmHg 52%
    02:00 +16°C° 0 mm 1 mps 607 mmHg 48%
    03:00 +15°C° 0 mm 1 mps 607 mmHg 45%
    04:00 +15°C° 0 mm 1 mps 607 mmHg 42%
    05:00 +18°C° 0 mm 1 mps 607 mmHg 41%
    06:00 +19°C° 0 mm 1 mps 608 mmHg 39%
    07:00 +20°C° 0 mm 1 mps 609 mmHg 38%
    08:00 +23°C° 0 mm 1 mps 610 mmHg 34%
    09:00 +25°C° 0 mm 2 mps 610 mmHg 30%
    10:00 +27°C° 0 mm 2 mps 611 mmHg 26%
    11:00 +28°C° 0 mm 2 mps 611 mmHg 25%
    12:00 +29°C° 0 mm 3 mps 610 mmHg 24%
    13:00 +30°C° 0 mm 3 mps 610 mmHg 23%
    14:00 +29°C° 0 mm 3 mps 609 mmHg 26%
    15:00 +28°C° 0 mm 3 mps 608 mmHg 28%
    16:00 +27°C° 0 mm 4 mps 608 mmHg 31%
    17:00 +24°C° 0 mm 3 mps 607 mmHg 39%
    18:00 +21°C° 0 mm 2 mps 607 mmHg 47%
    19:00 +19°C° 0 mm 2 mps 607 mmHg 56%
    20:00 +18°C° 0 mm 2 mps 607 mmHg 57%
    21:00 +18°C° 0 mm 1 mps 607 mmHg 58%
    22:00 +18°C° 0 mm 1 mps 608 mmHg 59%
    23:00 +18°C° 0 mm 1 mps 607 mmHg 58%

    25 November, Monday

    Time Temperature Precipitation Wind Pressure Humidity
    00:00 +16°C° 0 mm 1 mps 607 mmHg 58%
    01:00 +16°C° 0 mm 1 mps 607 mmHg 57%
    02:00 +16°C° 0 mm 1 mps 607 mmHg 56%
    03:00 +16°C° 0 mm 1 mps 606 mmHg 55%
    04:00 +16°C° 0 mm 1 mps 606 mmHg 54%
    05:00 +18°C° 0 mm 1 mps 607 mmHg 51%
    06:00 +19°C° 0 mm 1 mps 607 mmHg 48%
    07:00 +20°C° 0 mm 1 mps 608 mmHg 46%
    08:00 +22°C° 0 mm 1 mps 609 mmHg 41%
    09:00 +24°C° 0 mm 2 mps 610 mmHg 36%
    10:00 +27°C° 0 mm 3 mps 611 mmHg 32%
    11:00 +27°C° 0 mm 3 mps 610 mmHg 31%
    12:00 +28°C° 0 mm 3 mps 610 mmHg 31%
    13:00 +29°C° 0 mm 3 mps 609 mmHg 30%
    14:00 +28°C° 0 mm 3 mps 608 mmHg 34%
    15:00 +26°C° 0 mm 2 mps 608 mmHg 37%
    16:00 +25°C° 0 mm 1 mps 607 mmHg 40%
    17:00 +23°C° 0.1 mm 1 mps 607 mmHg 47%
    18:00 +20°C° 0.1 mm 2 mps 607 mmHg 54%
    19:00 +18°C° 0.1 mm 2 mps 607 mmHg 61%
    20:00 +19°C° 0 mm 1 mps 607 mmHg 64%
    21:00 +18°C° 0 mm 1 mps 608 mmHg 67%
    22:00 +16°C° 0 mm 1 mps 608 mmHg 70%
    23:00 +16°C° 0.1 mm 1 mps 607 mmHg 71%
    Show more